Simultaneous Nadir Overpasses (SNOs) Predictions

Prediction of SNOs between GOES-16 and AQUA Satellite Orbit:

Table of predicted SNOs for the next 14.0 days since TLE Epoch: 9/18/2020
Index Date Time (GOES-16) GOES-16 Lat,Lon AQUA Lat,Lon Distance(km) Time Diff (sec)
1 09/20/2020 06:17:30 -0.03, -75.21 -0.96, -70.93 487.04 80
2 09/20/2020 18:38:53 0.03, -75.22 -0.18, -76.12 101.95 80
3 09/22/2020 18:29:22 0.04, -75.25 0.49, -73.17 236.33 80
4 09/23/2020 06:50:37 -0.04, -75.24 0.61, -78.32 350.35 80
5 09/25/2020 06:38:25 -0.05, -75.27 0.00, -75.37 11.99 80
6 09/27/2020 06:23:34 -0.05, -75.30 -0.67, -72.42 327.79 80
7 09/27/2020 18:44:58 0.05, -75.32 -0.45, -77.61 260.73 80
8 09/29/2020 18:35:27 0.06, -75.36 0.23, -74.66 80.09 80
9 10/01/2020 18:23:15 0.06, -75.41 0.86, -71.71 421.64 80
10 10/02/2020 06:44:30 -0.06, -75.42 0.26, -76.86 164.08 80
